Home   Weather   Curitiba   Past weeks

Flag for Brazil Past Weather in Curitiba, Paraná, Brazil — Yesterday and Last 2 Weeks

64 °F

Low clouds.

Feels Like: 64 °F
Forecast: 63 / 72 °F
Wind: 7 mph from Southeast

Location: Curitiba Aeroporto

Current Time: Oct 25, 2016 at 10:35:38 PM

Latest Report: Oct 25, 2016 at 10:00 PM

Visibility: N/A

Pressure: 30.07 "Hg (27.01 "Hg at 915m altitude)

Humidity: 100%

Dew Point: 64 °F

Location of CuritibaLocation

Past Weather in Curitiba — Graph


Curitiba Temperature Yesterday

Maximum temperature yesterday: 77 °F (at 1:00 PM)
Minimum temperature yesterday: 59 °F (at 6:00 AM)
Average temperature yesterday: 65 °F

High & Low Weather Summary for the Past Weeks

High88 °F (Oct 16, 3:00 PM)100% (Oct 11, 9:00 PM)30.24 "Hg (Oct 11, 9:00 PM)
Low43 °F (Oct 12, 10:00 PM)32% (Oct 18, 8:00 PM)29.80 "Hg (Oct 20, 4:00 PM)
Average65 °F87%30.07 "Hg
* Reported Oct 10 8:00 PM — Oct 25 9:00 PM, Curitiba, Weather by CustomWeather, © 2016

Note: Actual official high and low records may vary slightly from our data, if they occured in-between our weather recording intervals... More about our weather records


Curitiba Weather History for the Previous 24 Hours

Scroll right to see more
Time TempWeatherWind HumidityBarometerVisibility
9:00 PM
Tue, Oct 25
64 °FPassing clouds.5 mph100%30.04 "HgN/A
8:00 PM64 °FLow clouds.9 mph100%30.01 "HgN/A
7:00 PM66 °FPartly sunny.7 mph94%30.01 "HgN/A
6:00 PM66 °FMostly cloudy.8 mph94%30.01 "HgN/A
5:00 PM68 °FCloudy.8 mph88%30.01 "HgN/A
4:00 PM68 °FScattered showers. More clouds than sun.9 mph94%30.01 "HgN/A
3:00 PM72 °FScattered showers. Mostly cloudy.7 mph78%30.01 "HgN/A
2:00 PM70 °FLight rain. Partly sunny.8 mph83%30.04 "Hg4 mi
1:00 PM70 °FPartly sunny.6 mph83%30.07 "HgN/A
11:00 AM70 °FBroken clouds.15 mph83%30.07 "HgN/A
10:00 AM66 °FBroken clouds.7 mph94%30.09 "HgN/A
9:00 AM66 °FPartly sunny.6 mph94%30.09 "HgN/A
8:00 AM64 °FLow clouds.3 mph100%30.07 "HgN/A
7:00 AM64 °FLow clouds.No wind94%30.04 "HgN/A
6:00 AM64 °FLow clouds.6 mph94%30.01 "HgN/A
5:00 AM64 °FPassing clouds.5 mph94%30.04 "HgN/A
4:00 AM64 °FLight rain. Passing clouds.6 mph94%30.04 "HgN/A
3:00 AM64 °FLight rain. Passing clouds.6 mph94%30.07 "HgN/A
2:00 AM64 °FLight rain. Passing clouds.6 mph94%30.07 "HgN/A
1:00 AM64 °FLight rain. Low clouds.5 mph94%30.09 "HgN/A
12:00 AM64 °FLight rain. Low clouds.5 mph94%30.09 "HgN/A
11:00 PM
Mon, Oct 24
64 °FLight rain. Low clouds.3 mph94%30.09 "HgN/A
10:00 PM64 °FPassing clouds.5 mph94%30.07 "HgN/A
Weather by CustomWeather, © 2016

See weather overviewHow to use our weather pages